• In Netherlands
  • List of Countries
  • For 7 days
  • Water Temperature
  • Satellite Maps
  • Weather Map
  • Weather Widgets
  • user-avatar
    Login

    Hourly Weather Ahtopol

    Today, 22 September, Friday

    Time Temperature Precipitation Wind Pressure Humidity
    00:00 +15°C° 0.2 mm 6 mps 758 mmHg 65%
    01:00 +14°C° 0.2 mm 6 mps 758 mmHg 67%
    02:00 +14°C° 0.2 mm 5 mps 758 mmHg 69%
    03:00 +13°C° 0 mm 5 mps 758 mmHg 70%
    04:00 +13°C° 0 mm 5 mps 758 mmHg 70%
    05:00 +13°C° 0 mm 5 mps 758 mmHg 71%
    06:00 +14°C° 0 mm 5 mps 758 mmHg 66%
    07:00 +14°C° 0 mm 5 mps 759 mmHg 62%
    08:00 +15°C° 0 mm 5 mps 759 mmHg 58%
    09:00 +17°C° 0 mm 5 mps 759 mmHg 51%
    10:00 +20°C° 0 mm 5 mps 759 mmHg 44%
    11:00 +22°C° 0 mm 5 mps 759 mmHg 38%
    12:00 +22°C° 0 mm 5 mps 759 mmHg 35%
    13:00 +23°C° 0 mm 4 mps 759 mmHg 33%
    14:00 +25°C° 0 mm 4 mps 759 mmHg 31%
    15:00 +23°C° 0 mm 5 mps 759 mmHg 33%
    16:00 +22°C° 0 mm 5 mps 759 mmHg 36%
    17:00 +21°C° 0 mm 5 mps 759 mmHg 38%
    18:00 +20°C° 0 mm 5 mps 759 mmHg 43%
    19:00 +19°C° 0 mm 5 mps 760 mmHg 47%
    20:00 +16°C° 0 mm 5 mps 760 mmHg 52%
    21:00 +16°C° 0 mm 5 mps 760 mmHg 54%
    22:00 +15°C° 0 mm 5 mps 761 mmHg 56%
    23:00 +15°C° 0 mm 5 mps 761 mmHg 59%

    Tomorrow, 23 September, Saturday

    Time Temperature Precipitation Wind Pressure Humidity
    00:00 +14°C° 0 mm 5 mps 761 mmHg 62%
    01:00 +13°C° 0 mm 4 mps 761 mmHg 65%
    02:00 +13°C° 0 mm 4 mps 761 mmHg 68%
    03:00 +12°C° 0 mm 4 mps 762 mmHg 69%
    04:00 +12°C° 0 mm 4 mps 762 mmHg 71%
    05:00 +12°C° 0 mm 4 mps 762 mmHg 72%
    06:00 +13°C° 0 mm 4 mps 762 mmHg 68%
    07:00 +14°C° 0 mm 4 mps 762 mmHg 63%
    08:00 +15°C° 0 mm 4 mps 762 mmHg 59%
    09:00 +18°C° 0 mm 4 mps 762 mmHg 52%
    10:00 +20°C° 0 mm 4 mps 762 mmHg 46%
    11:00 +22°C° 0 mm 4 mps 763 mmHg 40%
    12:00 +24°C° 0 mm 3 mps 762 mmHg 37%
    13:00 +25°C° 0 mm 3 mps 762 mmHg 35%
    14:00 +26°C° 0 mm 2 mps 762 mmHg 32%
    15:00 +25°C° 0 mm 2 mps 762 mmHg 33%
    16:00 +25°C° 0 mm 2 mps 762 mmHg 34%
    17:00 +25°C° 0 mm 2 mps 762 mmHg 36%
    18:00 +23°C° 0 mm 2 mps 762 mmHg 40%
    19:00 +20°C° 0 mm 2 mps 762 mmHg 44%
    20:00 +19°C° 0 mm 2 mps 763 mmHg 48%
    21:00 +18°C° 0 mm 2 mps 763 mmHg 49%
    22:00 +18°C° 0 mm 2 mps 763 mmHg 50%
    23:00 +17°C° 0 mm 2 mps 763 mmHg 51%

    Day after tomorrow, 24 September, Sunday

    Time Temperature Precipitation Wind Pressure Humidity
    00:00 +17°C° 0 mm 2 mps 763 mmHg 51%
    01:00 +16°C° 0 mm 1 mps 763 mmHg 51%
    02:00 +16°C° 0 mm 1 mps 763 mmHg 51%
    03:00 +16°C° 0 mm 1 mps 763 mmHg 52%
    04:00 +16°C° 0 mm 1 mps 763 mmHg 53%
    05:00 +15°C° 0 mm 1 mps 763 mmHg 54%
    06:00 +18°C° 0 mm 1 mps 763 mmHg 50%
    07:00 +19°C° 0 mm 1 mps 763 mmHg 46%
    08:00 +21°C° 0 mm 1 mps 763 mmHg 42%
    09:00 +23°C° 0 mm 1 mps 763 mmHg 38%
    10:00 +25°C° 0 mm 1 mps 763 mmHg 33%
    11:00 +27°C° 0 mm 1 mps 763 mmHg 29%
    12:00 +28°C° 0 mm 1 mps 763 mmHg 27%
    13:00 +29°C° 0 mm 2 mps 763 mmHg 26%
    14:00 +30°C° 0 mm 2 mps 763 mmHg 25%
    15:00 +29°C° 0 mm 3 mps 762 mmHg 27%
    16:00 +28°C° 0 mm 3 mps 762 mmHg 30%
    17:00 +27°C° 0 mm 4 mps 762 mmHg 32%
    18:00 +25°C° 0 mm 3 mps 762 mmHg 41%
    19:00 +22°C° 0 mm 3 mps 763 mmHg 49%
    20:00 +19°C° 0 mm 3 mps 763 mmHg 58%
    21:00 +19°C° 0 mm 3 mps 763 mmHg 61%
    22:00 +19°C° 0 mm 2 mps 763 mmHg 65%
    23:00 +18°C° 0 mm 2 mps 763 mmHg 68%

    25 September, Monday

    Time Temperature Precipitation Wind Pressure Humidity
    00:00 +18°C° 0 mm 2 mps 763 mmHg 71%
    01:00 +18°C° 0 mm 2 mps 763 mmHg 74%
    02:00 +18°C° 0 mm 2 mps 763 mmHg 77%
    03:00 +17°C° 0 mm 2 mps 762 mmHg 78%
    04:00 +17°C° 0 mm 2 mps 762 mmHg 79%
    05:00 +17°C° 0 mm 3 mps 762 mmHg 81%
    06:00 +19°C° 0 mm 3 mps 762 mmHg 76%
    07:00 +20°C° 0 mm 4 mps 762 mmHg 72%
    08:00 +21°C° 0 mm 5 mps 763 mmHg 67%
    09:00 +22°C° 0 mm 5 mps 762 mmHg 61%
    10:00 +25°C° 0 mm 5 mps 762 mmHg 55%
    11:00 +26°C° 0 mm 6 mps 762 mmHg 49%
    12:00 +26°C° 0 mm 6 mps 762 mmHg 48%
    13:00 +26°C° 0 mm 6 mps 762 mmHg 47%
    14:00 +27°C° 0 mm 6 mps 761 mmHg 46%
    15:00 +26°C° 0 mm 6 mps 762 mmHg 50%
    16:00 +24°C° 0 mm 6 mps 762 mmHg 53%
    17:00 +23°C° 0 mm 5 mps 762 mmHg 57%
    18:00 +22°C° 0 mm 5 mps 762 mmHg 64%
    19:00 +21°C° 0 mm 5 mps 762 mmHg 71%
    20:00 +20°C° 0 mm 4 mps 762 mmHg 78%
    21:00 +19°C° 0.1 mm 4 mps 762 mmHg 81%
    22:00 +19°C° 0.1 mm 3 mps 762 mmHg 84%
    23:00 +18°C° 0.1 mm 3 mps 762 mmHg 87%

    26 September, Tuesday

    Time Temperature Precipitation Wind Pressure Humidity
    00:00 +18°C° 0 mm 3 mps 761 mmHg 88%
    01:00 +18°C° 0 mm 3 mps 761 mmHg 89%
    02:00 +17°C° 0 mm 3 mps 761 mmHg 90%
    03:00 +17°C° 0 mm 3 mps 761 mmHg 90%
    04:00 +17°C° 0 mm 4 mps 761 mmHg 90%
    05:00 +15°C° 0 mm 4 mps 761 mmHg 90%
    06:00 +17°C° 0 mm 4 mps 761 mmHg 83%
    07:00 +18°C° 0 mm 4 mps 761 mmHg 77%
    08:00 +19°C° 0 mm 4 mps 761 mmHg 70%
    09:00 +21°C° 0 mm 4 mps 761 mmHg 61%
    10:00 +23°C° 0 mm 4 mps 761 mmHg 52%
    11:00 +27°C° 0 mm 4 mps 761 mmHg 43%
    12:00 +27°C° 0 mm 4 mps 760 mmHg 41%
    13:00 +28°C° 0 mm 5 mps 760 mmHg 39%
    14:00 +28°C° 0 mm 5 mps 760 mmHg 37%
    15:00 +27°C° 0.1 mm 5 mps 760 mmHg 43%
    16:00 +26°C° 0.1 mm 6 mps 760 mmHg 49%
    17:00 +24°C° 0.1 mm 6 mps 761 mmHg 55%
    18:00 +22°C° 0 mm 6 mps 761 mmHg 64%
    19:00 +20°C° 0 mm 5 mps 761 mmHg 73%
    20:00 +17°C° 0 mm 5 mps 762 mmHg 82%
    21:00 +17°C° 0 mm 5 mps 762 mmHg 82%
    22:00 +16°C° 0 mm 5 mps 762 mmHg 82%
    23:00 +15°C° 0 mm 4 mps 762 mmHg 83%

    27 September, Wednesday

    Time Temperature Precipitation Wind Pressure Humidity
    00:00 +15°C° 0 mm 4 mps 762 mmHg 82%
    01:00 +14°C° 0 mm 4 mps 762 mmHg 81%
    02:00 +14°C° 0 mm 4 mps 762 mmHg 80%
    03:00 +14°C° 0 mm 4 mps 763 mmHg 78%
    04:00 +13°C° 0 mm 4 mps 763 mmHg 76%
    05:00 +13°C° 0 mm 5 mps 763 mmHg 74%
    06:00 +14°C° 0 mm 5 mps 763 mmHg 67%
    07:00 +15°C° 0 mm 5 mps 763 mmHg 60%
    08:00 +16°C° 0 mm 6 mps 763 mmHg 53%
    09:00 +19°C° 0 mm 6 mps 764 mmHg 49%
    10:00 +21°C° 0 mm 6 mps 764 mmHg 45%
    11:00 +22°C° 0 mm 6 mps 764 mmHg 40%
    12:00 +23°C° 0 mm 6 mps 764 mmHg 40%
    13:00 +23°C° 0 mm 6 mps 763 mmHg 40%
    14:00 +24°C° 0 mm 7 mps 763 mmHg 39%
    15:00 +23°C° 0 mm 7 mps 763 mmHg 43%
    16:00 +22°C° 0 mm 7 mps 763 mmHg 46%
    17:00 +21°C° 0 mm 7 mps 764 mmHg 49%
    18:00 +19°C° 0 mm 6 mps 764 mmHg 53%
    19:00 +17°C° 0 mm 6 mps 764 mmHg 57%
    20:00 +16°C° 0 mm 5 mps 764 mmHg 60%
    21:00 +15°C° 0 mm 5 mps 764 mmHg 62%
    22:00 +15°C° 0 mm 5 mps 764 mmHg 64%
    23:00 +15°C° 0 mm 5 mps 764 mmHg 66%
    Show more